Location: Ar Ranvel
(48.3000°N, 4.8833°W)
Time: 02:36:48
(UTC+00:00)

SL-8 R/B - Visible Passes

Search period start: 17 October 2021 00:00
Search period end: 27 October 2021 00:00
Orbit: 656 x 667 km, 48.4° (Epoch: 16 October)

Date Brightness Start Highest point End Pass type
(mag) Time Alt. Az. Time Alt. Az. Time Alt. Az.
17 Oct 4.2 19:18:41 10° SW 19:23:08 40° SSE 19:23:30 39° SE visible
17 Oct 6.3 21:00:37 10° WSW 21:01:29 15° WSW 21:01:29 15° WSW visible
18 Oct 5.1 18:08:05 10° SSW 18:11:48 23° SE 18:15:11 12° E visible
18 Oct 3.9 19:49:02 10° WSW 19:53:10 58° SSW 19:53:10 58° SSW visible
19 Oct 4.3 18:37:46 10° SW 18:42:15 41° SSE 18:44:46 23° E visible
19 Oct 4.9 20:19:45 10° WSW 20:22:44 38° WSW 20:22:44 38° WSW visible
20 Oct 3.7 19:08:09 10° WSW 19:12:54 67° SSE 19:14:17 44° E visible
20 Oct 5.9 20:50:36 10° W 20:52:15 21° W 20:52:15 21° W visible
21 Oct 4.3 17:56:51 10° SW 18:01:22 43° SSE 18:05:47 11° E visible
21 Oct 3.5 19:38:53 10° W 19:43:42 87° S 19:43:44 87° SE visible
21 Oct 6.7 21:21:28 10° W 21:21:42 11° W 21:21:42 11° W visible
22 Oct 3.8 18:27:16 10° WSW 18:32:01 68° SSE 18:35:12 21° E visible
22 Oct 4.6 20:09:44 10° W 20:13:10 47° W 20:13:10 47° W visible
23 Oct 3.6 18:58:01 10° W 19:02:50 88° S 19:04:36 39° E visible
23 Oct 5.8 20:40:36 10° W 20:42:34 24° W 20:42:34 24° W visible
24 Oct 3.8 17:46:23 10° WSW 17:51:09 70° SSE 17:55:56 10° E visible
24 Oct 3.5 19:28:53 10° W 19:33:42 87° N 19:33:59 79° ENE visible
24 Oct 6.6 21:11:27 10° W 21:11:57 13° W 21:11:57 13° W visible
25 Oct 3.7 18:17:09 10° W 18:21:58 89° S 18:25:25 19° E visible
25 Oct 4.4 19:59:44 10° W 20:03:22 51° W 20:03:22 51° W visible
26 Oct 3.6 18:48:01 10° W 18:52:50 88° N 18:54:49 36° E visible
26 Oct 5.7 20:30:35 10° W 20:32:46 26° W 20:32:46 26° W visible
